| time (UTC) | temp F | wind direction | speed knots | gust knots | rain 1hr in | rain 24hr in | rain mn in | humidity % | barometer mb |
| 20260506211511 | 44 | 173 | 0.0 | 2.6 | 0.02 | 0.86 | 0.85 | 93 | 1008.3 |
| 20260506210031 | 44 | 198 | 0.9 | 2.6 | 0.01 | 0.85 | 0.84 | 93 | 1008.2 |
| 20260506204523 | 44 | 233 | 0.0 | 2.6 | 0.01 | 0.85 | 0.84 | 93 | 1008.1 |
| 20260506203026 | 44 | 184 | 0.0 | 0.9 | 0.01 | 0.86 | 0.84 | 93 | 1008.1 |
| 20260506201510 | 44 | 217 | 0.0 | 0.9 | 0.00 | 0.87 | 0.83 | 93 | 1008.0 |
| 20260506200015 | 44 | 217 | 0.0 | 1.7 | 0.01 | 0.89 | 0.83 | 93 | 1008.2 |
| 20260506194522 | 44 | 212 | 0.0 | 0.9 | 0.02 | 0.91 | 0.83 | 93 | 1008.2 |
| 20260506193036 | 44 | 189 | 0.0 | 1.7 | 0.02 | 1.02 | 0.83 | 93 | 1008.1 |
| 20260506191514 | 44 | 203 | 0.0 | 0.9 | 0.03 | 1.02 | 0.83 | 93 | 1008.3 |
| 20260506190020 | 44 | 135 | 0.0 | 3.5 | 0.02 | 1.01 | 0.82 | 93 | 1008.2 |
| 20260506184530 | 44 | 155 | 0.9 | 2.6 | 0.02 | 1.00 | 0.81 | 92 | 1008.3 |
| 20260506183026 | 44 | 181 | 0.0 | 1.7 | 0.03 | 1.00 | 0.81 | 93 | 1008.5 |
| 20260506180005 | 44 | 197 | 0.0 | 0.9 | 0.07 | 0.99 | 0.80 | 93 | 1008.4 |
| 20260506173014 | 44 | 195 | 0.0 | 0.9 | 0.14 | 0.97 | 0.78 | 93 | 1008.7 |
| 20260506170005 | 44 | 173 | 0.0 | 1.7 | 0.16 | 0.92 | 0.73 | 93 | 1009.3 |
| 20260506164510 | 44 | 116 | 0.0 | 1.7 | 0.14 | 0.86 | 0.67 | 93 | 1009.4 |
| 20260506163017 | 44 | 191 | 0.0 | 0.9 | 0.13 | 0.83 | 0.64 | 93 | 1009.1 |
| 20260506161520 | 44 | 157 | 0.0 | 1.7 | 0.12 | 0.80 | 0.61 | 92 | 1009.2 |
| 20260506160005 | 44 | 197 | 0.0 | 1.7 | 0.11 | 0.76 | 0.57 | 92 | 1009.5 |
| 20260506154510 | 45 | 219 | 0.0 | 0.9 | 0.09 | 0.72 | 0.52 | 92 | 1009.6 |
| 20260506153022 | 45 | 226 | 0.0 | 0.9 | 0.10 | 0.70 | 0.51 | 92 | 1009.9 |
| 20260506151520 | 45 | 226 | 0.0 | 0.9 | 0.09 | 0.68 | 0.49 | 92 | 1009.8 |
| 20260506150013 | 45 | 245 | 0.0 | 0.9 | 0.07 | 0.65 | 0.46 | 92 | 1009.9 |
| 20260506144509 | 45 | 257 | 0.0 | 0.9 | 0.07 | 0.63 | 0.44 | 92 | 1009.8 |
| 20260506143024 | 45 | 200 | 0.0 | 1.7 | 0.05 | 0.60 | 0.41 | 92 | 1009.9 |
| 20260506141524 | 45 | 346 | 0.0 | 1.7 | 0.06 | 0.58 | 0.40 | 92 | 1010.0 |
| 20260506140013 | 44 | 155 | 0.0 | 2.6 | 0.07 | 0.58 | 0.39 | 92 | 1009.9 |
| 20260506134511 | 45 | 310 | 0.0 | 2.6 | 0.07 | 0.56 | 0.37 | 92 | 1010.1 |
| 20260506133016 | 46 | 211 | 0.0 | 1.7 | 0.08 | 0.55 | 0.36 | 92 | 1009.7 |
| 20260506131520 | 47 | 39 | 0.0 | 1.7 | 0.07 | 0.52 | 0.34 | 92 | 1010.0 |
| 20260506130006 | 47 | 46 | 0.0 | 0.9 | 0.06 | 0.51 | 0.32 | 93 | 1009.9 |
| 20260506124514 | 47 | 217 | 0.0 | 0.0 | 0.04 | 0.49 | 0.30 | 92 | 1010.1 |
| 20260506123018 | 47 | 226 | 0.0 | 3.5 | 0.03 | 0.47 | 0.28 | 93 | 1010.1 |
| 20260506121523 | 48 | 22 | 1.7 | 7.0 | 0.02 | 0.46 | 0.27 | 93 | 1010.5 |
| 20260506120009 | 49 | 317 | 1.7 | 4.3 | 0.01 | 0.45 | 0.26 | 92 | 1009.5 |
| 20260506113020 | 51 | 144 | 0.0 | 1.7 | 0.00 | 0.44 | 0.25 | 92 | 1009.8 |
| 20260506111523 | 52 | 171 | 0.0 | 1.7 | 0.00 | 0.44 | 0.25 | 93 | 1009.7 |
| 20260506110013 | 53 | 262 | 0.0 | 0.0 | 0.00 | 0.44 | 0.25 | 94 | 1009.7 |
| 20260506104540 | 53 | 262 | 0.0 | 0.9 | 0.01 | 0.44 | 0.25 | 94 | 1009.5 |
| 20260506103025 | 53 | 262 | 0.0 | 0.0 | 0.01 | 0.44 | 0.25 | 94 | 1009.1 |
| 20260506101526 | 53 | 262 | 0.0 | 0.0 | 0.01 | 0.44 | 0.25 | 94 | 1009.2 |
| 20260506100017 | 53 | 262 | 0.0 | 0.0 | 0.01 | 0.44 | 0.25 | 94 | 1008.9 |
| 20260506093024 | 53 | 52 | 0.0 | 0.0 | 0.00 | 0.43 | 0.24 | 94 | 1009.1 |
| 20260506091508 | 53 | 52 | 0.0 | 0.0 | 0.00 | 0.43 | 0.24 | 94 | 1009.5 |
| 20260506090017 | 53 | 52 | 0.0 | 0.0 | 0.00 | 0.43 | 0.24 | 94 | 1009.7 |
| 20260506084519 | 53 | 52 | 0.0 | 0.0 | 0.00 | 0.43 | 0.24 | 93 | 1009.6 |
| 20260506083014 | 54 | 52 | 0.0 | 0.0 | 0.00 | 0.43 | 0.24 | 93 | 1009.4 |
| 20260506081510 | 54 | 52 | 0.0 | 0.0 | 0.00 | 0.43 | 0.24 | 93 | 1009.9 |
| 20260506073008 | 54 | 52 | 0.0 | 0.0 | 0.00 | 0.43 | 0.24 | 93 | 1009.6 |
| 20260506071512 | 54 | 52 | 0.0 | 0.0 | 0.00 | 0.43 | 0.24 | 93 | 1009.7 |
| 20260506044532 | 57 | 53 | 0.0 | 0.0 | 0.07 | 0.26 | 0.07 | 92 | 1010.9 |
| 20260506043016 | 57 | 53 | 0.0 | 0.0 | 0.01 | 0.19 | 0.00 | 91 | 1010.2 |
| 20260506041516 | 57 | 53 | 0.0 | 0.0 | 0.01 | 0.19 | 0.00 | 91 | 1010.2 |
| 20260506040039 | 57 | 53 | 0.0 | 0.9 | 0.01 | 0.19 | 0.00 | 92 | 1009.9 |
| 20260506034526 | 57 | 53 | 0.0 | 0.0 | 0.01 | 0.19 | 0.19 | 92 | 1010.0 |
| 20260506033014 | 57 | 53 | 0.0 | 0.0 | 0.00 | 0.18 | 0.18 | 93 | 1010.0 |
| 20260506031518 | 56 | 53 | 0.0 | 1.7 | 0.00 | 0.18 | 0.18 | 93 | 1009.6 |
| 20260506030025 | 56 | 221 | 0.0 | 0.0 | 0.00 | 0.18 | 0.18 | 93 | 1009.3 |
| 20260506024536 | 56 | 221 | 0.0 | 0.0 | 0.00 | 0.18 | 0.18 | 93 | 1009.0 |
| 20260506023014 | 56 | 221 | 0.0 | 0.0 | 0.00 | 0.18 | 0.18 | 93 | 1008.8 |
| 20260506021538 | 56 | 221 | 0.0 | 0.0 | 0.00 | 0.18 | 0.18 | 92 | 1008.9 |
| 20260506020024 | 56 | 226 | 0.0 | 0.0 | 0.00 | 0.18 | 0.18 | 92 | 1009.1 |
| 20260506014528 | 56 | 226 | 0.0 | 0.0 | 0.00 | 0.18 | 0.18 | 92 | 1009.2 |
| 20260506013018 | 56 | 226 | 0.0 | 0.0 | 0.00 | 0.18 | 0.18 | 92 | 1008.5 |
| 20260506011527 | 56 | 226 | 0.0 | 0.0 | 0.00 | 0.18 | 0.18 | 92 | 1007.9 |
| 20260506010026 | 56 | 235 | 0.0 | 0.0 | 0.00 | 0.18 | 0.18 | 92 | 1007.9 |
| 20260506004528 | 57 | 235 | 0.0 | 0.0 | 0.00 | 0.18 | 0.18 | 91 | 1008.0 |
| 20260506001522 | 58 | 234 | 0.0 | 0.0 | 0.00 | 0.18 | 0.18 | 91 | 1007.6 |
| 20260506000025 | 58 | 233 | 0.0 | 0.0 | 0.00 | 0.18 | 0.18 | 91 | 1007.4 |
| 20260505234539 | 59 | 240 | 0.0 | 0.0 | 0.00 | 0.18 | 0.18 | 91 | 1007.8 |
| 20260505231504 | 60 | 241 | 0.0 | 0.0 | 0.00 | 0.18 | 0.18 | 91 | 1007.6 |
| 20260505224525 | 60 | 165 | 0.0 | 0.9 | 0.00 | 0.18 | 0.18 | 91 | 1007.3 |
| 20260505223020 | 60 | 206 | 0.0 | 0.0 | 0.00 | 0.18 | 0.18 | 90 | 1007.3 |
| 20260505221504 | 60 | 269 | 0.0 | 0.9 | 0.00 | 0.18 | 0.18 | 89 | 1007.4 |
| 20260505220013 | 60 | 270 | 0.0 | 2.6 | 0.00 | 0.18 | 0.18 | 89 | 1007.3 |
| 20260505214516 | 60 | 268 | 0.0 | 0.9 | 0.00 | 0.18 | 0.18 | 88 | 1007.1 |
| 20260505213022 | 60 | 292 | 0.0 | 4.3 | 0.01 | 0.18 | 0.18 | 89 | 1007.5 |